Home > Weather > Manama > Past weeks

Flag for Bahrain Past Weather in Manama, Bahrain — Yesterday and Last 2 Weeks

Now
99 °F

Sunny.


Feels Like: 112 °F
Forecast: 94 / 102 °F
Wind: 15 mph from Northwest

Location: Bahrain International Airport

Current Time: Jul 1, 2016 at 9:29:39 AM

Latest Report: Jul 1, 2016 at 8:00 AM


Visibility: 5 mi

Pressure: 29.47 "Hg

Humidity: 47%

Dew Point: 75 °F

Location of ManamaLocation

Past Weather in Manama — Graph

°F

Manama Temperature Yesterday

Maximum temperature yesterday: 106 °F (at 2:00 PM)
Minimum temperature yesterday: 88 °F (at 4:00 AM)
Average temperature yesterday: 96 °F

High & Low Weather Summary for the Past Weeks

 TemperatureHumidityPressure
High111 °F (Jun 26, 1:00 PM)89% (Jun 30, 12:00 AM)29.65 "Hg (Jun 30, 12:00 AM)
Low84 °F (Jun 17, 3:00 AM)9% (Jun 26, 12:00 PM)29.39 "Hg (Jun 28, 1:00 AM)
Average96 °F44%29.51 "Hg
* Reported Jun 16 8:00 AM — Jul 1 8:00 AM, Manama, Weather by CustomWeather, © 2016

Note: Actual official high and low records may vary slightly from our data, if they occured in-between our weather recording intervals... More about our weather records

Advertising

Manama Weather History for the Previous 24 Hours

Scroll right to see more
 ConditionsComfort  
Time TempWeatherWind HumidityBarometerVisibility
8:00 AM
Fri, Jul 1
99 °FSunny.15 mph47%29.47 "Hg5 mi
7:00 AM97 °FSunny.15 mph53%29.47 "Hg10 mi
6:00 AM97 °FSunny.15 mph44%29.45 "Hg10 mi
5:00 AM97 °FSunny.12 mph34%29.45 "Hg10 mi
4:00 AM97 °FClear.10 mph34%29.42 "Hg10 mi
3:00 AM95 °FClear.10 mph50%29.42 "Hg10 mi
2:00 AM99 °FClear.8 mph39%29.42 "Hg10 mi
1:00 AM97 °FPassing clouds.3 mph50%29.42 "HgN/A
12:00 AM97 °FPassing clouds.3 mph56%29.45 "HgN/A
11:00 PM
Thu, Jun 30
93 °FClear.6 mph71%29.45 "Hg10 mi
10:00 PM97 °FClear.5 mph53%29.47 "Hg10 mi
9:00 PM95 °FClear.5 mph60%29.47 "Hg6 mi
8:00 PM93 °FClear.6 mph67%29.47 "Hg6 mi
7:00 PM93 °FClear.7 mph67%29.47 "Hg6 mi
6:00 PM97 °FPassing clouds.9 mph56%29.45 "HgN/A
5:00 PM99 °FSunny.9 mph47%29.45 "Hg10 mi
4:00 PM100 °FSunny.8 mph45%29.47 "Hg10 mi
3:00 PM102 °FPassing clouds.12 mph33%29.47 "HgN/A
2:00 PM106 °FPassing clouds.8 mph30%29.50 "HgN/A
1:00 PM104 °FPassing clouds.10 mph26%29.50 "HgN/A
12:00 PM104 °FSunny.14 mph28%29.50 "Hg10 mi
11:00 AM102 °FSunny.17 mph31%29.53 "Hg6 mi
10:00 AM100 °FSunny.12 mph42%29.53 "Hg4 mi
9:00 AM100 °FSunny.10 mph33%29.53 "Hg4 mi
Weather by CustomWeather, © 2016

See weather overviewHow to use our weather pages